GFSCGP_con_3kmhel_336.txt.gz
Helicity
-4 12 16 22 60 27 19 46 46 13 21 21 21 44 34 -0 51 14 1 -11 -1 50 34 77 90 107 101 115 108 171 185 165 135 120 124 99 108 92 112 146 144 150 170 187
7 24 26 28 9 23 34 35 38 4 11 -12 16 26 11 8 24 39 18 -0 -10 19 52 100 141 127 113 117 115 111 156 151 143 129 111 101 87 89 139 158 168 179 177 193
-0 30 15 19 3 19 27 2 4 15 8 33 11 19 -12 -3 -15 17 -3 -9 -13 -0 66 118 149 121 100 95 115 116 110 135 140 132 89 66 60 51 104 128 164 196 216 222
27 92 34 18 21 22 26 43 5 2 -0 -21 -48 -3 -14 -6 31 5 -13 -13 -0 11 34 138 153 116 106 78 92 124 102 109 111 124 107 114 131 138 127 137 144 157 185 221
65 35 35 34 31 73 18 18 6 1 -6 -7 -22 -24 8 97 8 12 -5 -6 -7 7 28 83 155 131 97 78 71 130 111 98 101 120 134 112 126 117 116 129 161 199 233 257
19 61 59 51 74 72 44 1 -15 -18 -32 -31 -18 -22 2 71 66 8 -7 46 16 19 16 4 50 116 90 84 76 98 108 94 98 115 134 146 133 130 146 149 182 208 242 268
31 54 75 79 30 31 34 28 -9 -21 -22 -14 70 -11 -21 31 17 35 100 127 79 50 41 25 40 90 91 121 111 91 93 80 96 112 121 148 145 140 156 167 201 220 239 259
24 -1 118 39 73 53 23 38 31 31 15 3 39 -7 6 9 50 90 161 126 94 59 50 39 61 74 92 126 113 91 69 59 84 106 110 116 128 144 153 168 182 197 213 217
31 23 154 102 109 121 55 33 72 36 13 -4 -1 6 26 77 139 162 160 143 95 64 61 66 68 61 72 94 81 73 57 42 62 93 93 98 106 130 141 130 143 167 179 185
146 50 53 80 95 82 129 139 71 63 14 4 14 7 16 64 98 124 134 125 93 65 75 82 77 74 72 75 76 72 65 61 54 75 93 83 86 85 87 93 107 140 153 170
107 104 43 40 28 78 130 118 83 94 77 53 87 42 87 69 135 114 84 84 72 74 97 98 83 73 78 82 93 86 79 69 62 75 84 68 48 41 52 78 98 121 130 148
117 140 51 35 52 25 74 73 98 62 73 58 26 68 50 67 100 141 89 81 70 88 109 111 108 113 113 108 117 100 85 77 77 87 82 56 43 34 42 51 68 97 121 142
89 120 82 49 68 93 84 100 77 69 57 28 66 50 71 30 96 92 104 107 108 116 119 115 132 153 152 138 133 119 103 87 90 107 99 82 64 62 51 54 68 95 108 111
135 131 97 70 7 29 33 93 96 92 99 93 33 65 117 37 75 111 87 103 122 144 144 136 157 170 160 153 156 149 130 137 137 151 133 110 88 78 71 77 85 88 92 96
181 133 77 46 7 27 -7 25 50 79 89 122 51 25 -7 -6 41 22 59 116 108 146 166 162 174 177 172 175 194 190 190 207 203 192 171 128 118 117 115 92 80 78 91 96
165 130 58 44 63 53 12 -2 40 58 76 44 20 -17 -0 39 157 125 78 91 81 143 188 187 181 185 195 219 242 254 263 270 276 245 192 177 179 164 127 103 95 88 92 98
199 174 92 -1 55 38 -36 -17 44 66 93 134 20 49 90 46 29 49 65 102 117 112 176 228 226 230 212 258 293 313 314 344 331 288 243 255 246 195 151 128 116 110 106 118
183 178 173 79 93 22 18 53 44 70 157 229 163 142 85 120 53 75 77 98 130 122 167 183 258 270 258 280 337 375 393 403 383 329 317 324 292 235 190 167 142 134 134 131
267 232 237 206 147 71 61 128 120 84 61 100 106 136 99 100 82 33 70 81 103 106 138 191 244 292 300 297 348 433 436 475 459 413 390 394 342 290 238 192 161 154 154 154
258 287 245 250 183 93 21 23 114 190 47 60 116 112 95 151 141 76 94 95 94 90 109 158 149 235 284 294 380 446 492 518 476 475 444 434 371 305 253 202 175 168 171 158
263 374 323 282 244 118 222 260 238 217 92 37 82 80 150 152 156 157 106 108 107 118 167 136 165 191 252 317 364 400 482 491 499 514 479 452 376 311 251 214 203 177 154 165
236 275 371 361 288 59 277 265 265 195 203 112 127 83 47 47 61 65 78 92 103 94 83 99 134 139 204 278 354 391 449 458 478 472 459 431 347 301 253 217 182 157 174 178
330 417 382 318 451 411 168 134 141 93 52 120 88 77 73 64 73 65 63 68 59 63 65 84 91 135 203 254 339 409 377 405 440 469 422 360 306 258 233 205 170 183 186 175
157 267 260 235 168 178 166 156 164 141 111 16 -33 -9 24 69 63 72 57 53 72 108 94 78 80 121 184 228 250 269 314 412 449 385 337 319 287 248 215 192 183 196 170 171
158 108 195 212 169 212 178 165 118 115 116 111 68 76 94 87 78 75 58 34 45 71 89 88 94 132 185 202 195 215 345 396 352 340 331 297 266 240 218 199 187 160 167 217
191 229 252 161 149 173 146 115 130 82 102 100 90 94 47 32 46 51 68 106 119 128 152 136 129 156 185 202 258 329 328 337 367 364 322 281 256 238 236 213 163 119 171 221

GFSCGP_con_3kmhel_339.txt.gz
Helicity
-1 6 13 51 7 16 18 29 54 23 23 28 73 82 52 30 64 61 21 10 19 82 65 95 105 134 138 150 209 238 232 195 188 130 109 76 84 61 76 105 128 138 142 157
12 35 21 16 4 -7 9 18 41 8 -15 -2 10 58 47 -1 9 122 59 21 20 31 65 105 123 153 177 151 158 192 211 205 182 173 131 91 71 66 102 115 134 149 156 168
-15 17 46 21 5 6 18 -5 3 -13 -1 10 1 27 2 13 16 41 58 57 31 41 110 130 145 175 172 161 153 179 187 189 173 151 95 61 23 30 41 74 90 135 168 189
11 60 60 44 22 15 5 16 7 -3 -28 -25 -35 16 19 8 25 21 34 34 11 3 77 159 172 154 168 146 127 139 149 154 145 157 133 125 123 125 107 119 133 152 191 209
39 45 48 45 30 51 6 19 0 -9 -14 -25 10 8 35 3 25 42 50 45 23 6 107 179 188 163 142 122 104 83 101 109 116 137 146 138 109 98 99 94 110 127 137 180
27 53 45 32 67 70 39 17 15 9 -20 4 -2 -3 30 17 42 56 40 15 9 15 54 138 147 134 105 82 84 71 82 69 88 109 112 127 118 99 87 96 124 136 152 166
98 80 103 102 84 82 65 47 18 1 11 -5 16 -9 46 18 22 38 79 25 2 4 50 79 101 103 81 83 72 64 84 59 63 82 88 101 107 104 112 116 130 123 128 153
64 67 104 70 87 33 34 25 -3 -3 -1 20 27 -8 16 9 28 47 106 47 15 0 6 42 87 91 80 83 80 87 83 57 61 68 71 74 81 86 93 105 119 126 144 149
76 65 106 123 97 93 60 42 40 13 12 -8 -1 24 35 26 70 83 98 124 85 64 58 36 48 89 99 102 95 105 97 65 68 66 65 63 67 75 74 76 77 91 101 108
139 97 115 96 90 85 79 80 73 88 -1 3 19 25 38 51 63 85 143 141 88 73 60 56 68 72 92 106 101 94 91 86 64 64 67 53 59 60 49 37 42 68 77 91
66 111 95 123 62 64 123 128 91 73 47 -4 18 32 8 47 80 152 132 115 116 98 77 63 61 62 80 89 102 82 68 59 50 60 62 58 43 41 35 32 34 54 68 83
102 101 71 12 28 59 127 117 178 86 71 63 -3 37 59 69 56 95 146 116 97 103 83 79 78 81 83 90 93 83 74 80 61 69 81 59 54 51 33 28 35 53 72 79
135 147 86 99 110 139 100 112 111 144 115 37 38 10 33 35 44 61 73 106 87 70 78 86 99 101 89 95 97 98 101 93 92 112 103 89 69 70 44 42 46 56 69 73
188 185 156 99 38 51 77 133 172 147 88 82 55 48 82 99 89 82 91 85 85 83 96 110 111 102 96 104 115 118 108 121 140 150 141 123 95 84 79 79 76 81 85 80
158 165 140 95 54 22 36 52 68 94 98 78 21 53 48 -32 -4 46 54 73 116 96 111 131 139 128 127 131 125 132 130 148 182 188 184 145 112 132 137 129 116 110 100 80
131 149 133 64 68 42 3 10 23 62 65 41 49 -13 21 8 37 -25 0 68 75 139 144 148 163 174 158 165 172 150 162 177 239 229 211 177 192 212 188 180 155 145 114 89
187 190 231 43 78 74 -18 -17 35 86 138 153 84 104 116 80 92 42 -1 29 57 71 100 174 180 210 210 207 227 200 212 231 270 257 245 239 267 279 249 225 214 163 140 122
206 216 225 162 118 47 103 71 55 54 104 234 222 166 95 85 43 56 89 71 20 40 82 103 153 238 253 257 260 224 267 277 304 292 311 288 344 331 308 304 245 201 174 145
195 261 242 201 216 78 75 145 108 37 25 60 128 110 74 130 182 75 25 8 24 46 59 113 172 228 243 302 273 313 325 311 335 309 354 351 413 385 389 361 293 234 202 172
235 259 281 322 207 122 6 -73 64 88 28 27 97 113 95 171 139 108 194 204 153 104 94 90 105 154 210 244 333 384 347 375 384 379 394 407 468 443 450 394 339 275 226 170
272 388 315 286 234 128 125 214 122 98 53 79 53 76 88 133 179 194 128 93 117 96 96 108 87 140 163 201 339 341 359 400 401 442 453 467 456 468 448 419 386 289 223 190
217 264 366 377 295 44 109 197 140 224 166 69 26 -21 -15 30 72 79 96 97 83 92 104 86 97 95 91 136 238 245 314 327 414 535 502 438 441 472 477 429 357 291 231 198
178 288 277 264 346 450 281 53 90 47 21 34 56 22 29 15 85 52 36 31 34 38 62 64 68 68 57 82 150 208 245 344 401 433 415 425 466 471 441 405 333 291 219 208
236 193 199 172 156 206 156 100 26 46 45 72 72 65 5 2 15 10 11 70 112 121 96 87 94 86 82 73 96 151 220 310 392 407 417 426 429 422 392 346 289 249 224 196
310 273 195 130 117 171 162 98 79 53 27 44 55 16 12 -2 -7 1 94 67 55 41 59 67 74 88 85 82 109 135 174 295 369 376 362 374 379 371 343 277 244 218 167 167
-63 74 237 196 212 171 161 178 147 66 72 89 75 86 50 20 36 -13 -23 -12 1 16 48 93 108 109 109 120 121 141 166 233 290 317 347 334 338 330 302 289 267 184 151 149

GFSCGP_con_3kmhel_345.txt.gz
Helicity
16 -11 18 18 15 12 8 21 38 72 36 42 124 160 187 127 14 34 23 11 14 38 43 8 31 50 39 34 61 80 91 98 122 89 62 32 44 29 26 40 58 56 61 67
39 -1 11 -1 -14 -9 4 19 46 52 26 8 43 114 179 82 22 46 75 36 44 30 -1 -14 -2 23 59 66 74 74 105 115 126 103 82 58 29 13 24 15 35 49 56 63
42 7 42 22 14 8 3 11 21 10 14 12 10 28 11 9 15 39 41 65 37 62 30 -7 -6 38 42 68 91 103 114 119 126 108 87 39 -3 -39 -34 -12 -4 33 60 69
23 35 15 38 20 34 12 9 12 13 -8 -8 -19 9 48 17 28 13 21 24 32 23 -3 -14 7 37 64 81 80 101 104 114 102 117 84 70 68 43 4 -0 3 10 33 60
40 52 50 49 42 47 5 37 21 8 -11 -18 17 5 49 33 34 19 25 34 36 23 20 4 13 26 64 70 101 104 91 85 82 99 82 68 34 17 -11 -39 -23 -6 17 51
26 61 52 38 66 62 58 39 56 46 14 16 -1 3 134 16 29 37 26 27 15 -8 -9 -10 10 -0 16 49 66 76 82 59 68 73 73 67 49 17 -23 -36 -24 -8 6 23
49 60 107 113 92 86 96 78 36 19 23 6 -9 -0 82 68 89 90 85 57 36 20 14 -1 -23 -13 -14 43 64 61 64 37 50 60 53 53 38 21 13 -1 -0 -3 -5 11
56 60 79 92 107 81 69 78 67 15 3 20 -18 7 49 27 102 57 59 73 43 41 65 64 19 27 32 46 60 68 56 21 40 45 33 28 16 2 -9 -4 7 9 25 35
79 49 63 74 92 94 68 82 70 54 4 -20 13 38 19 21 32 44 60 39 52 52 52 30 71 62 46 63 61 88 69 41 53 53 29 21 12 6 -7 -1 12 15 21 27
92 76 83 78 103 135 100 74 115 109 2 -22 25 18 70 79 136 223 134 92 55 52 57 70 66 61 66 65 78 89 77 80 70 58 48 26 25 15 6 21 12 27 27 32
101 124 81 110 78 105 150 132 138 91 48 -6 -21 15 1 14 61 184 210 138 99 70 49 65 91 82 97 107 100 84 81 68 55 64 60 50 34 38 41 37 20 34 44 44
97 134 96 71 103 88 106 110 195 146 52 68 32 29 5 -47 -78 45 191 155 139 111 62 61 69 90 105 91 89 78 80 75 60 77 82 64 57 67 57 37 29 62 48 57
95 160 141 108 121 161 143 140 181 232 186 72 34 7 28 26 91 101 177 272 258 259 185 72 74 80 94 100 101 92 88 72 78 113 101 82 64 77 63 50 51 88 77 74
146 197 200 163 86 100 88 73 138 229 174 122 98 62 33 -7 -46 -55 18 14 33 163 240 139 94 97 95 105 113 107 82 99 118 125 114 83 80 90 80 74 85 116 119 131
201 220 198 165 119 122 109 95 101 157 111 144 52 20 -2 -21 -19 -0 -52 -72 -39 20 113 142 97 83 103 116 121 127 106 123 152 132 128 86 106 120 123 108 112 135 172 165
249 221 218 174 171 107 84 120 117 137 103 110 70 58 34 36 44 72 129 136 89 -11 37 75 70 98 120 129 138 125 131 147 199 162 124 130 150 160 149 146 159 187 201 213
216 258 225 130 152 196 39 142 151 171 207 229 137 143 54 55 97 134 103 60 72 81 42 76 73 88 110 196 196 185 165 210 219 194 161 164 172 173 180 193 234 230 254 293
206 231 249 168 154 41 215 203 161 130 122 146 112 41 28 34 58 13 46 107 155 188 173 145 91 74 57 113 173 209 237 243 222 201 178 198 229 203 225 253 243 276 340 333
222 218 265 283 258 162 51 153 85 41 56 92 88 67 62 85 43 47 2 70 37 93 143 187 191 154 100 102 121 149 220 247 257 223 210 217 249 264 299 277 273 327 399 413
131 242 289 322 331 196 362 304 -34 83 29 -43 165 126 140 28 -19 10 142 147 168 103 81 119 119 118 140 148 150 157 178 203 225 217 237 251 304 313 329 293 337 400 402 397
253 271 257 254 347 259 219 276 101 197 166 100 73 204 79 135 56 53 16 45 33 45 46 69 29 63 126 160 115 97 122 147 166 183 213 257 312 314 325 343 417 419 419 473
205 301 313 299 338 249 453 265 132 201 165 -274 -254 -120 -68 -24 10 32 51 35 21 9 -4 27 90 102 93 87 90 94 85 108 150 178 213 232 276 294 317 383 408 428 438 457
397 339 335 392 423 595 197 298 341 224 168 116 144 186 116 72 49 35 69 47 19 -9 -4 4 15 57 57 41 46 86 113 68 64 112 153 195 244 285 353 369 404 477 437 463
140 88 32 109 3 109 207 194 -14 -50 75 83 -33 -34 -36 52 110 76 53 131 99 97 58 34 8 19 33 13 8 17 38 33 39 57 83 135 186 234 300 344 393 415 466 494
61 -31 -71 -120 -20 47 177 94 -8 35 19 67 29 -5 59 -35 -51 -53 7 124 145 107 60 25 57 36 45 23 17 5 2 1 11 18 35 70 136 186 246 283 328 348 352 441
107 113 20 -19 -66 -36 -17 -7 -59 22 132 143 77 50 68 80 -30 -30 50 157 205 195 176 110 32 10 37 37 52 33 -4 -5 9 40 56 70 117 169 226 286 354 413 313 425

GFSCGP_con_3kmhel_348.txt.gz
Helicity
48 3 25 33 32 19 18 6 12 35 -18 5 53 115 197 158 32 40 31 7 1 0 -28 -50 -8 17 33 29 55 67 81 71 96 49 21 6 28 25 16 24 37 35 38 44
65 9 -3 -5 -2 13 4 -4 21 3 -31 -24 37 167 240 146 19 38 56 23 20 -21 -47 -50 -14 32 56 53 47 44 47 69 82 75 75 61 39 11 13 2 14 27 39 47
59 43 58 28 46 10 -12 -13 -10 -4 -8 2 10 46 39 35 11 2 -11 3 -20 26 6 -26 10 42 38 54 57 44 49 66 70 85 114 84 36 -16 -42 -34 -23 17 42 52
35 44 32 56 50 60 13 15 2 6 -3 -13 -1 23 76 37 40 10 21 -21 -16 -31 0 -12 23 37 48 41 34 33 34 44 53 83 72 66 56 36 3 -8 -17 -14 15 40
44 48 50 52 42 65 22 40 28 30 27 2 46 3 69 32 49 53 31 5 -16 -41 13 14 28 43 27 15 50 48 41 38 37 70 67 61 27 20 -13 -50 -49 -34 -16 12
35 62 44 39 69 61 68 43 67 58 43 32 9 -13 115 50 29 165 120 77 30 40 24 -30 -34 -31 -17 0 26 36 48 27 36 54 54 58 42 7 -29 -58 -60 -47 -29 -5
40 53 103 110 90 82 103 76 32 23 37 4 5 2 83 74 137 146 189 179 81 48 47 29 -3 -14 -27 -11 36 45 51 26 40 49 33 36 23 11 1 -17 -24 -26 -25 -12
41 43 48 76 91 66 70 78 62 20 32 25 10 8 25 -5 28 18 24 81 96 80 60 48 44 68 80 77 90 96 81 42 63 53 32 20 13 0 -17 -22 -8 -12 0 11
68 45 51 60 78 91 67 74 74 94 66 26 23 34 39 37 63 118 107 128 149 132 94 55 73 81 88 107 98 115 121 77 78 66 47 27 28 26 -5 -8 0 -11 -2 4
87 72 71 90 95 105 78 65 97 96 19 4 22 28 49 71 95 65 132 202 230 158 120 80 71 74 89 107 127 131 120 118 109 100 77 56 49 39 18 39 16 9 9 26
96 119 77 91 72 101 134 119 124 94 107 21 -10 17 -2 4 -43 36 124 214 271 224 190 117 68 81 84 98 118 118 122 118 119 116 114 93 66 65 69 63 41 31 48 58
126 129 93 61 104 92 109 90 150 141 79 93 40 30 -10 -16 -27 41 173 225 214 178 260 212 155 86 80 89 102 112 117 128 121 138 140 115 111 103 80 60 59 75 65 83
157 188 147 152 144 154 136 155 196 210 181 114 51 40 5 -6 -8 18 104 129 68 67 162 176 158 120 100 95 98 110 116 108 142 171 141 124 110 119 84 75 90 105 103 106
185 201 201 144 124 93 105 94 141 234 217 116 133 77 27 -20 -51 -8 -78 -109 -4 25 44 77 152 144 126 106 112 108 112 134 159 171 161 123 115 122 121 128 131 129 149 151
252 230 195 177 147 113 102 95 126 200 196 157 43 28 64 50 34 34 87 110 41 26 -31 -9 93 150 131 132 121 124 124 138 168 164 164 124 141 151 155 153 148 159 185 178
266 228 217 111 151 119 52 73 100 161 166 156 117 45 74 46 15 70 63 31 43 74 102 57 56 100 138 128 144 143 143 152 191 166 153 164 189 194 161 158 175 191 184 210
115 189 172 40 121 126 2 77 167 179 214 229 161 87 27 31 49 58 46 77 56 70 64 79 65 79 102 120 131 154 173 191 210 190 159 183 190 197 192 192 216 197 206 260
166 202 188 125 114 43 158 222 211 140 92 85 93 76 70 83 116 64 144 86 52 88 54 50 72 93 127 124 91 101 129 176 196 206 199 204 210 185 188 237 243 225 264 288
165 193 241 242 205 181 37 128 98 42 11 114 60 32 185 67 -12 -14 74 59 112 176 128 62 25 78 97 99 87 74 97 142 201 195 187 208 242 234 257 266 241 259 319 333
39 119 241 289 289 187 224 184 252 292 182 351 466 374 310 328 259 267 419 371 245 192 177 119 47 51 57 89 84 82 89 122 148 158 170 191 221 237 285 285 285 314 343 324
260 250 232 223 265 225 286 281 81 223 193 40 -16 26 94 56 93 171 130 203 180 132 155 117 73 68 74 61 40 62 105 85 86 124 148 176 212 232 250 264 323 347 351 383
97 199 284 244 310 261 462 273 218 266 317 307 57 -267 -216 -145 -103 -26 24 20 87 151 157 77 54 92 73 50 48 67 99 136 110 96 115 138 161 196 225 261 307 355 370 405
160 130 172 257 331 303 343 277 216 276 271 224 296 266 127 27 -55 -99 -108 -37 60 112 181 134 54 44 76 62 23 59 52 51 72 94 116 126 137 167 222 257 297 323 339 365
98 79 119 70 46 44 84 36 31 -65 18 10 73 68 182 31 -27 -30 -69 71 71 87 125 192 184 98 61 58 67 31 38 34 38 52 63 73 87 100 125 182 233 255 297 320
78 106 129 111 106 60 -29 -43 -128 -200 -84 -30 -49 -41 -65 -51 -78 -65 65 96 117 22 52 97 166 194 141 59 75 83 65 42 27 30 41 45 48 55 79 121 178 198 220 263
158 166 222 221 150 130 101 86 71 -8 -25 -22 -1 16 42 26 -6 -83 -71 -78 -15 42 11 69 131 174 220 170 133 124 91 73 56 54 55 55 61 73 98 131 165 225 153 156

GFSCGP_con_3kmhel_351.txt.gz
Helicity
44 30 35 31 38 34 30 17 29 35 -22 -13 18 105 185 126 5 36 36 30 13 2 -0 -38 -42 -29 -21 -14 18 32 45 33 70 64 15 -24 -28 -16 -16 -9 9 8 15 29
39 28 39 37 35 36 28 12 18 1 -31 -15 27 194 231 94 22 35 55 20 11 -34 -36 -58 -48 -36 -3 18 34 36 36 51 59 36 68 57 23 -9 -8 -11 -4 11 22 35
55 47 57 51 37 22 15 12 -9 9 -18 -19 22 72 61 55 37 25 14 -1 -47 -4 -10 -30 -9 17 19 32 51 62 61 58 58 44 101 76 18 -25 -47 -39 -27 8 33 37
41 53 55 54 46 76 -24 35 -1 -30 -17 -8 -1 56 93 95 134 51 52 2 -12 -38 -50 -46 8 44 67 68 68 66 74 69 52 71 20 19 11 -2 -14 -4 -4 -6 9 18
49 57 58 48 37 55 34 50 40 39 23 14 33 18 32 75 130 208 157 100 42 -8 -57 -64 8 53 63 63 86 89 90 79 66 35 30 24 4 -6 3 -6 -27 -43 -41 -17
42 66 56 59 78 63 54 37 65 66 45 32 16 14 52 51 136 230 244 204 126 79 19 -62 -69 -28 14 49 76 91 58 29 29 38 36 26 16 -3 -30 -56 -66 -62 -49 -30
34 51 82 110 106 98 100 59 33 22 41 26 20 22 38 72 89 123 204 211 169 108 95 73 -17 64 41 30 42 35 14 14 15 26 28 23 7 -3 -5 -29 -46 -44 -38 -29
51 50 54 52 73 73 75 67 60 15 26 25 40 23 33 -4 -33 -84 47 69 136 144 92 73 79 59 53 70 57 64 51 19 35 46 33 11 -5 -15 -30 -31 -21 -25 -16 -9
66 53 50 57 63 66 56 62 67 86 65 36 29 19 25 49 37 100 215 325 283 268 228 157 87 67 58 73 101 117 115 81 83 89 74 44 24 14 -10 -15 -8 -4 1 9
77 77 71 76 87 97 83 82 83 72 12 13 34 40 18 49 39 78 240 342 416 279 280 239 162 66 65 53 65 86 101 114 120 126 113 91 77 60 38 25 11 19 19 41
114 117 88 74 50 73 116 107 124 107 90 26 22 34 11 15 21 18 167 225 291 283 198 250 210 147 86 63 76 77 88 96 113 128 124 114 112 93 82 59 58 53 61 76
135 118 81 47 88 92 108 90 127 128 85 117 81 28 12 -4 15 52 112 105 102 49 99 119 150 180 170 127 81 86 100 111 107 127 144 123 132 126 104 76 77 91 82 104
180 176 118 109 113 117 107 102 150 183 172 158 77 55 47 39 9 -46 -71 -37 -78 -23 57 62 79 122 127 132 131 101 86 99 117 147 147 145 141 148 118 101 109 113 109 111
206 223 167 129 164 109 122 124 142 191 158 85 131 36 1 -49 -22 -6 21 54 26 1 -0 77 121 117 78 74 79 119 114 103 111 137 150 146 143 147 148 146 145 147 144 139
241 235 258 212 176 113 63 55 88 131 134 111 31 -14 31 45 39 31 25 34 81 118 126 143 166 195 144 58 69 57 96 120 132 132 143 132 150 160 162 166 169 166 176 168
185 211 201 101 144 135 50 60 93 95 102 107 95 10 57 -5 -20 4 33 73 93 128 119 140 188 194 194 130 69 72 66 112 157 155 143 130 147 165 182 175 180 203 200 203
114 130 145 62 130 155 -3 53 76 130 177 145 97 54 41 29 63 61 85 33 55 126 137 161 181 179 196 178 121 86 85 93 148 169 163 182 186 179 168 169 199 207 209 242
177 191 158 121 91 46 154 228 194 154 218 293 268 245 164 151 177 96 142 150 223 228 216 227 194 183 164 138 178 120 100 86 105 148 163 166 194 205 197 215 226 212 233 277
146 236 247 235 196 163 87 115 135 97 152 288 312 346 334 263 282 137 291 303 308 254 205 187 158 153 196 82 88 138 110 92 93 100 117 152 191 188 195 223 233 243 279 293
37 71 196 244 245 177 299 243 214 162 241 334 259 253 280 235 167 263 357 392 393 278 212 206 181 149 140 171 113 81 164 128 98 95 116 125 150 173 205 210 216 232 268 256
248 226 221 165 204 189 276 219 80 248 271 66 111 131 42 -21 -27 103 99 153 158 141 164 102 102 97 122 131 89 113 95 168 176 124 106 120 131 140 149 173 199 224 238 249
124 198 275 262 258 232 331 248 250 226 150 121 159 102 -53 -179 -242 -203 -85 -80 -52 41 82 68 59 101 114 156 83 88 108 56 58 89 107 116 115 129 147 151 177 196 213 230
158 103 118 179 246 223 193 115 21 -65 -40 2 -45 -45 26 -0 6 -58 -189 -273 -176 -97 42 90 85 100 85 111 137 114 119 68 58 47 70 68 68 102 127 150 163 200 212 239
99 80 130 118 115 66 50 41 43 45 17 -21 -35 -125 -148 -46 14 33 -17 -106 -182 -178 -108 132 133 155 133 91 112 128 142 73 68 78 66 50 50 45 55 96 135 159 185 211
122 132 161 122 109 92 90 101 67 31 43 65 53 35 39 6 -59 -37 -15 -20 27 -44 -76 -6 147 155 173 131 98 115 142 103 87 84 97 94 79 68 62 63 92 118 134 165
184 193 200 192 120 131 111 107 115 97 110 122 99 74 72 68 71 65 40 6 -38 -25 -55 -76 11 46 75 45 50 80 82 120 111 109 101 97 88 81 76 72 68 89 88 84